Regional Weather Roundup
Issued by NWS Goodland, KS

Home | Current Version | Previous Version | Text Only | Print | Product List | Glossary On
Versions: 1 2 3 4 5 6 7 8 9 10 11 12 13 14 15 16 17 18 19 20 21 22 23 24 25 26 27 28 29 30 31 32 33 34 35 36 37 38 39 40 41 42 43 44 45 46 47 48 49 50
000
ASUS43 KGLD 241108
RWRGLD

GOODLAND FORECAST AREA HOURLY WEATHER ROUNDUP
NATIONAL WEATHER SERVICE GOODLAND KS
500 AM MDT SUN MAY 24 2015

...OFFICIAL OBSERVATIONS...

CITY           SKY/WX    TMP DP  RH WIND       PRES   REMARKS
GOODLAND KS    MOCLDY    50  50 100 S6        29.89S
HILL CITY KS   CLOUDY    58  56  93 E5        29.89F FOG
IMPERIAL NEB   MOCLDY    54  53  97 E9        29.86F
MCCOOK NEB     CLOUDY    56  55  97 SE10      29.87F
AKRON CO       FOG       47  47 100 SW7       29.90R VSB 1/2
BURLINGTON CO  CLOUDY    50  45  83 W5        29.90S
LIMON CO       PTCLDY    38  38 100 N3        29.92S FOG
$$

...UNOFFICIAL OBSERVATIONS...

CITY           SKY/WX    TMP DP  RH WIND       PRES   REMARKS
GOVE KS          N/A     58  32  37 MISG        N/A
LENORA KS        N/A     56  32  40 MISG        N/A
SHARON SPRINGS   N/A     53  52  97 MISG        N/A
TRENTON NEB      N/A     55  32  41 SE9         N/A
KIT CARSON CO    N/A     51  48  89 MISG        N/A
$$


USA.gov is the U.S. government's official web portal to all federal, state and local government web resources and services.